Location: Newark
(40.3500°N, 15.2333°E)
Time: 00:12:40
(UTC+00:00)

Vanguard 1 - Pass Details

Date: 02 February 2020
Orbit: 650 x 3833 km, 34.2° (Epoch: 25 February)

Event Time Altitude Azimuth Distance (km) Brightness Sun altitude
Rises 15:40:09 0° 262° (W) 3,386 14.5 5.7°
Reaches altitude 10° 15:42:58 10° 255° (WSW) 2,236 14.1 5.2°
Maximum altitude 15:47:26 39° 185° (S) 974 10.5 4.5°
Drops below altitude 10° 15:51:37 10° 116° (ESE) 2,088 11.4 3.7°
Sets 15:54:10 0° 108° (ESE) 3,128 12.2 3.3°
